[[{"header":{"parameterUnit":"m.s-1","parameterCategory":1,"la1":30.2991,"la2":30.254,"lo1":-89.0895,"lo2":-89.0444,"dx":0.0017,"dy":0.0017,"nx":28,"ny":28,"refTime":"2022-11-16T09:00:00:Z","depth":0,"parameterNumber":2,"parameterNumberName":"U-component_of_WINDS"},"data":[0,0,0,0,0,0,0,0,0,0,0,0,0,0,0,0,0,0,0,0,0,0,0,0,0,0,0,0,0,0,0,0,0,0,0,0,0,0,0,0,0,0,0,0,0,0,0,0,0,0,0,0,0,0,0,0,0,0,-0.0335,-0.0335,0,-0.0334,-0.0334,-0.0334,-0.0305,-0.0304,-0.0303,-0.0302,-0.0303,-0.0304,-0.0305,0,0,0,0,0,0,0,0,0,0,0,0,0,-0.0312,-0.0312,-0.0335,-0.0335,-0.0335,-0.0334,-0.0334,-0.0334,-0.0305,-0.0304,-0.0303,-0.0302,-0.0303,-0.0304,-0.0305,0,0,0,0,0,0,0,0,0,0,0,0,0,-0.0318,-0.0313,-0.0335,-0.032,-0.0319,-0.0334,-0.0334,-0.0334,-0.0305,-0.0304,-0.0303,-0.0302,-0.0303,-0.0304,-0.0305,-0.0335,0,0,-0.0308,-0.0309,0,0,0,0,0,0,0,0,-0.0317,-0.0318,-0.0322,-0.0321,-0.032,-0.0318,-0.0326,-0.0334,-0.0305,-0.031,-0.0302,-0.0301,-0.0309,-0.031,-0.0312,-0.0335,-0.0335,-0.0308,-0.0309,-0.031,-0.031,0,0,0,0,0,0,0,-0.0317,-0.0318,-0.0334,-0.0322,-0.0321,-0.0314,-0.0313,-0.0328,-0.0316,-0.031,-0.0308,-0.0308,-0.0308,-0.0311,-0.0312,-0.0335,-0.0308,-0.0309,-0.031,-0.031,-0.038,-0.0381,0,0,0,0,0,0,-0.0318,-0.0318,-0.0334,-0.0334,-0.0316,-0.0315,-0.0315,-0.032,-0.0316,-0.0314,-0.0309,-0.0306,-0.031,-0.0311,-0.0312,-0.0346,-0.031,-0.0311,-0.0311,-0.0379,-0.038,-0.0382,0,0,0,0,0,0,-0.0318,-0.032,-0.0335,-0.0326,-0.0327,-0.0317,-0.0323,-0.032,-0.0323,-0.0315,-0.0313,-0.0314,-0.0309,-0.031,-0.0329,-0.0345,-0.0311,-0.0312,-0.0377,-0.0379,-0.0381,-0.0414,0,0,0,0,0,0,-0.0317,-0.032,-0.0331,-0.0326,-0.0328,-0.0351,-0.0324,-0.0321,-0.0325,-0.0322,-0.0319,-0.0318,-0.0308,-0.0327,-0.033,-0.0346,-0.0313,-0.0376,-0.0378,-0.038,-0.0411,-0.0417,-0.0421,0,0,0,0,0,-0.0317,-0.0341,-0.0332,-0.0334,-0.0341,-0.0352,-0.0353,-0.0341,-0.0326,-0.0338,-0.0332,-0.0318,-0.0343,-0.0329,-0.0332,-0.0349,-0.0375,-0.0378,-0.038,-0.0409,-0.0416,-0.0421,0,0,0,0,0,0,-0.035,-0.0341,-0.033,-0.0354,-0.0354,-0.0347,-0.0361,-0.0349,-0.0354,-0.0351,-0.0336,-0.0336,-0.0356,-0.0354,-0.0339,-0.0377,-0.0356,-0.036,-0.0377,-0.0383,-0.0388,-0.0388,-0.0314,0,0,0,0,0,-0.036,-0.0369,-0.0361,-0.0382,-0.0383,-0.0372,-0.0376,-0.0367,-0.0367,-0.0367,-0.0363,-0.0364,-0.0372,-0.0377,-0.0384,-0.0411,-0.0409,-0.0423,-0.0428,-0.0432,-0.0436,-0.0448,-0.0454,-0.039,-0.039,-0.039,0,0,-0.0381,-0.0377,-0.0384,-0.0389,-0.0388,-0.0398,-0.0372,-0.0385,-0.0392,-0.0369,-0.0386,-0.0383,-0.0383,-0.0405,-0.0414,-0.0404,-0.0453,-0.0436,-0.0439,-0.044,-0.0452,-0.0458,-0.0463,-0.0392,-0.0392,-0.0391,0,0,-0.0424,-0.0422,-0.0439,-0.0438,-0.0437,-0.0429,-0.0433,-0.0428,-0.0425,-0.0442,-0.0424,-0.0433,-0.0447,-0.0447,-0.0449,-0.049,-0.0477,-0.0493,-0.0519,-0.0531,-0.0537,-0.0541,-0.0555,-0.0561,-0.0496,-0.0496,-0.0496,0,-0.0451,-0.0465,-0.045,-0.0463,-0.0465,-0.0444,-0.0461,-0.0461,-0.0462,-0.0464,-0.0452,-0.0469,-0.0467,-0.0488,-0.0498,-0.0501,-0.0505,-0.0494,-0.0537,-0.0541,-0.0545,-0.0558,-0.0564,-0.0498,-0.0498,-0.0498,-0.0498,0,-0.0497,-0.0507,-0.0521,-0.0522,-0.0526,-0.0541,-0.0528,-0.0534,-0.0524,-0.0517,-0.0534,-0.0531,-0.0536,-0.054,-0.0531,-0.056,-0.0553,-0.0539,-0.0519,-0.0553,-0.0566,-0.0571,-0.0501,-0.05,-0.05,-0.0499,0,0,-0.0563,-0.0553,-0.0559,-0.0558,-0.0554,-0.0562,-0.0575,-0.0579,-0.0585,-0.0586,-0.0597,-0.0608,-0.0594,-0.0597,-0.0587,-0.0598,-0.063,-0.0582,-0.0582,-0.0591,-0.0661,-0.0672,-0.0678,-0.0621,-0.0622,-0.0622,-0.0661,0,-0.0604,-0.0627,-0.0613,-0.0638,-0.0646,-0.0625,-0.0637,-0.0636,-0.0629,-0.0636,-0.0629,-0.0638,-0.0619,-0.062,-0.063,-0.0624,-0.0644,-0.0621,-0.0631,-0.0631,-0.0632,-0.0684,-0.0696,-0.0733,-0.0666,-0.0667,-0.0667,0,-0.0656,-0.0658,-0.0683,-0.0676,-0.0679,-0.069,-0.0692,-0.0699,-0.0696,-0.0691,-0.0693,-0.068,-0.0692,-0.0671,-0.0688,-0.0673,-0.0676,-0.0673,-0.0674,-0.0675,-0.0652,-0.0687,-0.0744,-0.075,-0.0675,-0.0674,-0.0674,0,-0.0701,-0.071,-0.0726,-0.0726,-0.0718,-0.0726,-0.0723,-0.072,-0.0723,-0.0725,-0.0726,-0.073,-0.0732,-0.0735,-0.0723,-0.0709,-0.0741,-0.0719,-0.0737,-0.0737,-0.0746,-0.0745,-0.0804,-0.0747,-0.0747,-0.0747,-0.0747,0,-0.0749,-0.0765,-0.0746,-0.0756,-0.0773,-0.0757,-0.0774,-0.0769,-0.0766,-0.0774,-0.0756,-0.0764,-0.0748,-0.0754,-0.0745,-0.076,-0.0761,-0.0757,-0.0755,-0.0759,-0.0759,-0.0761,-0.0758,-0.0749,-0.0748,-0.0748,-0.0748,0,-0.0803,-0.079,-0.0806,-0.0796,-0.0794,-0.0808,-0.0799,-0.0808,-0.08,-0.0811,-0.0812,-0.08,-0.0806,-0.0794,-0.08,-0.0793,-0.0814,-0.0808,-0.0815,-0.0813,-0.0831,-0.083,-0.0894,-0.0901,-0.084,-0.084,-0.0841,0,-0.0834,-0.0846,-0.0837,-0.0841,-0.0839,-0.0846,-0.0848,-0.0832,-0.0835,-0.0833,-0.0842,-0.0846,-0.0849,-0.0861,-0.0852,-0.0856,-0.0849,-0.0871,-0.085,-0.0853,-0.0849,-0.0849,-0.0849,-0.0876,-0.0877,-0.0877,-0.0878,0,-0.0892,-0.0884,-0.0888,-0.089,-0.0893,-0.0894,-0.0893,-0.0897,-0.088,-0.0885,-0.0891,-0.0893,-0.0897,-0.0902,-0.0903,-0.09,-0.0886,-0.0884,-0.0889,-0.0893,-0.0897,-0.0895,-0.0827,-0.0883,-0.0883,-0.0882,-0.0882,-0.0882,-0.0935,-0.0944,-0.0938,-0.0943,-0.0941,-0.094,-0.0947,-0.0939,-0.0944,-0.0946,-0.0936,-0.0944,-0.094,-0.094,-0.0938,-0.0944,-0.0934,-0.0941,-0.0942,-0.0944,-0.0947,-0.0896,-0.0944,-0.0944,-0.0944,-0.0944,-0.0944,0,-0.0991,-0.0986,-0.099,-0.0989,-0.0993,-0.0978,-0.0976,-0.098,-0.0987,-0.0984,-0.0987,-0.0993,-0.0997,-0.0988,-0.0991,-0.0997,-0.0991,-0.0998,-0.0998,-0.0997,-0.0956,-0.0952,-0.1004,-0.1004,-0.1004,-0.1004,-0.1004,-0.1004,-0.102,-0.1034,-0.1026,-0.1039,-0.1033,-0.104,-0.1041,-0.104,-0.1037,-0.1045,-0.1048,-0.1041,-0.1036,-0.1038,-0.1041,-0.1038,-0.104,-0.105,-0.1045,-0.1006,-0.1,-0.0995,-0.0991,-0.105,-0.105,-0.1086,-0.1086,-0.1086]},{"header":{"parameterUnit":"m.s-1","parameterCategory":1,"la1":30.2991,"la2":30.254,"lo1":-89.0895,"lo2":-89.0444,"dx":0.0017,"dy":0.0017,"nx":28,"ny":28,"refTime":"2022-11-16T09:00:00:Z","depth":0,"parameterNumber":3,"parameterNumberName":"V-component_of_WINDS"},"data":[0,0,0,0,0,0,0,0,0,0,0,0,0,0,0,0,0,0,0,0,0,0,0,0,0,0,0,0,0,0,0,0,0,0,0,0,0,0,0,0,0,0,0,0,0,0,0,0,0,0,0,0,0,0,0,0,0,0,-7.6189,-7.619,0,-7.6322,-7.6323,-7.6325,-7.6245,-7.6241,-7.6237,-7.6234,-7.6364,-7.6371,-7.6378,0,0,0,0,0,0,0,0,0,0,0,0,0,-7.5859,-7.5866,-7.6189,-7.619,-7.6192,-7.6322,-7.6324,-7.6325,-7.6246,-7.6241,-7.6237,-7.6232,-7.6362,-7.637,-7.6379,0,0,0,0,0,0,0,0,0,0,0,0,0,-7.5998,-7.5868,-7.6188,-7.6168,-7.6168,-7.6321,-7.6324,-7.6326,-7.6247,-7.6241,-7.6235,-7.623,-7.6359,-7.6369,-7.638,-7.6559,0,0,-7.6412,-7.6417,0,0,0,0,0,0,0,0,-7.5991,-7.601,-7.617,-7.617,-7.617,-7.6261,-7.6255,-7.6404,-7.6248,-7.6217,-7.6234,-7.6227,-7.6334,-7.6346,-7.6384,-7.6565,-7.6571,-7.6413,-7.6419,-7.6424,-7.6427,0,0,0,0,0,0,0,-7.5981,-7.6004,-7.6241,-7.6172,-7.6172,-7.615,-7.6164,-7.6283,-7.6306,-7.6219,-7.6213,-7.6231,-7.6333,-7.6374,-7.6386,-7.6573,-7.6413,-7.6422,-7.6429,-7.6433,-7.6907,-7.6913,0,0,0,0,0,0,-7.5974,-7.5997,-7.6237,-7.6245,-7.6064,-7.6161,-7.6176,-7.6237,-7.6304,-7.6309,-7.6235,-7.6226,-7.6359,-7.6374,-7.6391,-7.6604,-7.6424,-7.6434,-7.644,-7.6901,-7.6908,-7.6915,0,0,0,0,0,0,-7.5967,-7.5996,-7.6232,-7.612,-7.6148,-7.6173,-7.6242,-7.6243,-7.6284,-7.6317,-7.632,-7.6273,-7.6355,-7.6376,-7.6518,-7.6608,-7.6438,-7.6448,-7.6893,-7.6903,-7.6912,-7.7034,0,0,0,0,0,0,-7.5958,-7.5994,-7.6064,-7.6122,-7.6154,-7.6359,-7.6248,-7.625,-7.6303,-7.6292,-7.6353,-7.6357,-7.6352,-7.6503,-7.6529,-7.6619,-7.6456,-7.6885,-7.6897,-7.6909,-7.7022,-7.7047,-7.7068,0,0,0,0,0,-7.5946,-7.6092,-7.6068,-7.6097,-7.6243,-7.6365,-7.6383,-7.6375,-7.6311,-7.638,-7.6401,-7.6356,-7.6594,-7.6518,-7.6546,-7.6642,-7.6879,-7.6894,-7.6908,-7.7012,-7.7042,-7.7067,0,0,0,0,0,0,-7.6042,-7.6099,-7.6073,-7.6242,-7.63,-7.6351,-7.6439,-7.6407,-7.6482,-7.6469,-7.6454,-7.6469,-7.6617,-7.6643,-7.6558,-7.6818,-7.6726,-7.6747,-7.6796,-7.6824,-7.6847,-7.6837,-7.6465,0,0,0,0,0,-7.6083,-7.618,-7.6223,-7.6368,-7.6399,-7.6414,-7.6467,-7.6456,-7.6514,-7.6537,-7.6568,-7.6624,-7.6711,-7.6769,-7.6851,-7.7025,-7.7037,-7.7105,-7.7127,-7.7146,-7.7164,-7.7257,-7.7287,-7.6961,-7.6961,-7.6961,0,0,-7.6168,-7.6212,-7.6273,-7.6389,-7.6432,-7.653,-7.6435,-7.6543,-7.6615,-7.6552,-7.669,-7.6714,-7.6776,-7.6935,-7.7006,-7.6961,-7.7256,-7.7164,-7.7178,-7.7186,-7.7274,-7.7305,-7.7332,-7.6971,-7.6969,-7.6968,0,0,-7.6374,-7.6417,-7.6542,-7.6588,-7.6655,-7.6664,-7.6694,-7.6751,-7.6766,-7.6903,-7.6858,-7.6943,-7.7094,-7.7139,-7.7182,-7.7405,-7.7366,-7.7432,-7.755,-7.7641,-7.7667,-7.7689,-7.7768,-7.7797,-7.7449,-7.745,-7.745,0,-7.6471,-7.662,-7.661,-7.6722,-7.6774,-7.6724,-7.685,-7.6893,-7.6983,-7.7019,-7.6967,-7.7156,-7.7193,-7.7362,-7.7417,-7.7453,-7.7486,-7.7425,-7.7664,-7.7687,-7.7708,-7.7783,-7.7812,-7.7457,-7.7456,-7.7456,-7.7455,0,-7.6735,-7.6839,-7.6931,-7.7022,-7.7083,-7.7201,-7.7208,-7.7271,-7.7255,-7.7269,-7.7409,-7.7453,-7.7543,-7.7582,-7.7566,-7.7748,-7.7718,-7.7666,-7.7573,-7.7746,-7.7817,-7.7845,-7.7468,-7.7465,-7.7463,-7.7461,0,0,-7.7005,-7.7089,-7.7123,-7.7163,-7.7233,-7.7312,-7.7427,-7.7517,-7.7571,-7.7634,-7.7729,-7.7858,-7.781,-7.7859,-7.7848,-7.7928,-7.8101,-7.7865,-7.7867,-7.7907,-7.8303,-7.8342,-7.8375,-7.8075,-7.808,-7.8085,-7.8298,0,-7.7215,-7.7419,-7.7413,-7.7602,-7.7696,-7.765,-7.775,-7.7802,-7.7818,-7.7899,-7.7915,-7.8007,-7.7937,-7.7967,-7.8044,-7.8064,-7.818,-7.8048,-7.8162,-7.8166,-7.8148,-7.8412,-7.8454,-7.8653,-7.8325,-7.833,-7.8333,0,-7.7487,-7.7562,-7.776,-7.7816,-7.7856,-7.7946,-7.8028,-7.8106,-7.8164,-7.817,-7.8225,-7.8201,-7.8315,-7.822,-7.8376,-7.8287,-7.8332,-7.8349,-7.8357,-7.8367,-7.826,-7.8429,-7.8716,-7.8746,-7.8376,-7.8373,-7.837,0,-7.7664,-7.7813,-7.7952,-7.7987,-7.8056,-7.812,-7.8152,-7.8204,-7.8258,-7.8329,-7.8364,-7.8446,-7.8491,-7.8554,-7.8552,-7.8483,-7.8711,-7.8615,-7.8717,-7.8717,-7.8767,-7.8764,-7.9065,-7.8797,-7.8797,-7.8796,-7.8796,0,-7.7899,-7.8022,-7.8032,-7.8117,-7.8253,-7.8245,-7.8379,-7.8403,-7.845,-7.8537,-7.8501,-7.8583,-7.8576,-7.8658,-7.8657,-7.8786,-7.8807,-7.8813,-7.8812,-7.8817,-7.8816,-7.8847,-7.8833,-7.8804,-7.8802,-7.8801,-7.88,0,-7.8119,-7.8131,-7.8279,-7.8332,-7.8348,-7.8446,-7.849,-7.857,-7.8583,-7.8694,-7.8719,-7.8738,-7.8833,-7.8838,-7.8947,-7.8945,-7.9103,-7.9086,-7.9084,-7.9081,-7.9183,-7.9173,-7.9514,-7.9558,-7.9262,-7.9265,-7.9267,0,-7.8268,-7.8362,-7.8426,-7.8483,-7.8519,-7.8611,-7.8667,-7.8661,-7.872,-7.8793,-7.8864,-7.8956,-7.9029,-7.9183,-7.9205,-7.9288,-7.9272,-7.9386,-7.9284,-7.9286,-7.9273,-7.9268,-7.9277,-7.9406,-7.9409,-7.9412,-7.9414,0,-7.8532,-7.8533,-7.8616,-7.8702,-7.8769,-7.8836,-7.8897,-7.8945,-7.8946,-7.9014,-7.9112,-7.9169,-7.9281,-7.9372,-7.9453,-7.9482,-7.9448,-7.9446,-7.9474,-7.948,-7.9475,-7.9479,-7.9138,-7.9438,-7.9435,-7.9434,-7.9432,-7.9431,-7.8721,-7.8802,-7.886,-7.8954,-7.9,-7.9058,-7.9136,-7.9159,-7.9241,-7.9333,-7.9324,-7.9432,-7.9486,-7.9591,-7.9627,-7.971,-7.9671,-7.9712,-7.9722,-7.9732,-7.9743,-7.9462,-7.9725,-7.9724,-7.9724,-7.9723,-7.9723,0,-7.8982,-7.9018,-7.9104,-7.9192,-7.9265,-7.9228,-7.9294,-7.9357,-7.9454,-7.9508,-7.9581,-7.9693,-7.9781,-7.9811,-7.9896,-7.9957,-7.9943,-7.9979,-7.9975,-7.9982,-7.9773,-7.9741,-7.9989,-7.9989,-7.9989,-7.9989,-7.9989,-7.9989,-7.9127,-7.9263,-7.9271,-7.9428,-7.9461,-7.9569,-7.961,-7.9663,-7.9706,-7.9834,-7.9908,-7.9927,-7.9971,-8.0059,-8.0137,-8.0143,-8.0176,-8.0219,-8.0219,-8.0023,-7.9997,-7.9971,-7.994,-8.0226,-8.0227,-8.042,-8.0422,-8.0423]}]]